FW1197 Weather Reports


time (UTC)temp
F
wind
direction
speed
knots
gust
knots
rain 1hr
in
rain 24hr
in
rain mn
in
humidity
%
barometer
mb
20260504050006 53 71 2.6 3.5 0.00 0.00 0.00 69 1022.1
20260504045406 53 67 2.6 3.5 0.00 0.00 0.00 75 1021.9
20260504044516 52 61 2.6 3.5 0.00 0.00 0.00 84 1021.9
20260504043604 52 68 2.6 3.5 0.00 0.00 0.00 85 1022.0
20260504042705 52 72 2.6 3.5 0.00 0.00 0.00 82 1021.8
20260504041804 52 73 2.6 3.5 0.00 0.00 0.00 76 1022.1
20260504040904 52 65 2.6 3.5 0.00 0.00 0.00 68 1021.8
20260504040005 52 80 2.6 3.5 0.00 0.00 0.00 68 1021.8
20260504035405 52 82 2.6 3.5 0.00 0.00 0.00 67 1021.6
20260504034525 52 78 1.7 4.3 0.00 0.00 0.00 64 1021.4
20260504033605 53 64 0.9 3.5 0.00 0.00 0.00 61 1021.8
20260504032704 54 72 2.6 5.2 0.00 0.00 0.00 59 1021.6
20260504031808 54 65 2.6 3.5 0.00 0.00 0.00 59 1021.6
20260504030904 54 65 1.7 4.3 0.00 0.00 0.00 61 1021.4
20260504030004 54 66 2.6 3.5 0.00 0.00 0.00 63 1021.5
20260504025405 54 53 1.7 4.3 0.00 0.00 0.00 62 1021.4
20260504024506 54 50 1.7 4.3 0.00 0.00 0.00 61 1021.6
20260504023605 54 65 2.6 4.3 0.00 0.00 0.00 61 1021.8
20260504022704 55 27 1.7 3.5 0.00 0.00 0.00 51 1021.6
20260504021804 55 43 1.7 3.5 0.00 0.00 0.00 56 1021.6
20260504020904 55 30 1.7 3.5 0.00 0.00 0.00 56 1021.8
20260504020006 55 45 0.9 3.5 0.00 0.00 0.00 54 1021.8
20260504015405 54 69 0.9 2.6 0.00 0.00 0.00 57 1021.5
20260504014525 54 29 1.7 4.3 0.00 0.00 0.00 61 1021.6
20260504013604 54 47 2.6 5.2 0.00 0.00 0.00 63 1021.6
20260504011805 55 46 2.6 4.3 0.00 0.00 0.00 63 1021.5
20260504010906 53 46 1.7 3.5 0.00 0.00 0.00 67 1021.8
20260504010004 53 56 0.9 1.7 0.00 0.00 0.00 63 1021.8
20260504005404 52 75 0.9 2.6 0.00 0.00 0.00 67 1021.6
20260504004504 53 50 2.6 3.5 0.00 0.00 0.00 61 1021.5
20260504003625 56 30 2.6 3.5 0.00 0.00 0.00 51 1021.4
20260504002705 56 27 2.6 3.5 0.00 0.00 0.00 46 1021.4
20260504001804 55 25 2.6 3.5 0.00 0.00 0.00 51 1021.4
20260504000905 53 27 1.7 3.5 0.00 0.00 0.00 69 1021.6
20260504000007 52 28 1.7 3.5 0.00 0.00 0.00 87 1021.8
20260503235404 53 24 1.7 2.6 0.00 0.00 0.00 92 1021.6
20260503234525 53 23 1.7 2.6 0.00 0.00 0.00 92 1021.9
20260503233605 53 27 1.7 2.6 0.00 0.00 0.00 92 1022.1
20260503232725 53 27 1.7 2.6 0.00 0.00 0.00 91 1022.2
20260503231804 53 28 1.7 2.6 0.00 0.00 0.00 91 1022.3
20260503230906 53 28 1.7 2.6 0.00 0.00 0.00 90 1022.3
20260503230004 53 27 1.7 2.6 0.00 0.00 0.00 91 1022.5
20260503225416 53 24 1.7 2.6 0.00 0.00 0.00 91 1022.2
20260503224504 53 27 1.7 2.6 0.00 0.00 0.00 92 1022.6
20260503223625 53 25 1.7 2.6 0.00 0.00 0.00 92 1022.5
20260503222719 53 25 1.7 2.6 0.00 0.00 0.00 92 1023.0
20260503221805 53 26 1.7 2.6 0.00 0.00 0.00 92 1022.5
20260503220904 53 28 1.7 2.6 0.00 0.00 0.00 92 1022.8
20260503220026 53 23 1.7 2.6 0.00 0.00 0.00 92 1022.5
20260503215404 53 32 1.7 2.6 0.00 0.00 0.00 92 1022.6
20260503214505 53 31 1.7 2.6 0.00 0.00 0.00 92 1022.7
20260503213605 53 32 1.7 3.5 0.00 0.00 0.00 93 1022.4
20260503212726 53 25 1.7 2.6 0.00 0.00 0.00 93 1022.6
20260503211805 53 23 1.7 2.6 0.00 0.00 0.00 94 1022.4
20260503210904 53 33 1.7 2.6 0.00 0.00 0.00 94 1022.4
20260503210006 53 30 1.7 2.6 0.00 0.00 0.00 94 1022.5
20260503205405 53 24 0.9 2.6 0.00 0.00 0.00 94 1022.5
20260503204505 53 31 0.9 1.7 0.00 0.00 0.00 94 1022.5
20260503203604 53 26 0.9 1.7 0.00 0.00 0.00 93 1022.6
20260503202704 53 13 1.7 5.2 0.00 0.00 0.00 93 1022.5
20260503201827 53 339 2.6 5.2 0.00 0.00 0.00 93 1022.6
20260503200925 53 352 1.7 4.3 0.00 0.00 0.00 92 1022.5
20260503200025 53 14 1.7 2.6 0.00 0.00 0.00 92 1022.5
20260503195425 53 12 1.7 2.6 0.00 0.00 0.00 92 1022.3
20260503194526 53 34 1.7 2.6 0.00 0.00 0.00 91 1022.2
20260503193605 53 16 0.9 2.6 0.00 0.00 0.00 91 1022.4
20260503192708 54 36 0.9 2.6 0.00 0.00 0.00 90 1022.3
20260503191819 54 340 2.6 5.2 0.00 0.00 0.00 90 1022.2
20260503190907 54 331 2.6 5.2 0.00 0.00 0.00 89 1022.1
20260503190004 54 17 0.9 3.5 0.00 0.00 0.00 89 1021.9
20260503185404 54 17 0.9 2.6 0.00 0.00 0.00 88 1021.9
20260503184504 54 37 0.9 2.6 0.00 0.00 0.00 87 1021.9
20260503183605 55 8 0.9 4.3 0.00 0.00 0.00 86 1021.6
20260503182719 56 280 2.6 6.1 0.00 0.00 0.00 86 1021.9
20260503181806 56 296 3.5 7.8 0.00 0.00 0.00 84 1021.9
20260503180906 56 280 5.2 8.7 0.00 0.00 0.00 84 1021.9
20260503180004 57 275 6.1 9.6 0.00 0.00 0.00 83 1021.8
20260503175404 57 270 5.2 9.6 0.00 0.00 0.00 82 1021.8
20260503174504 58 294 4.3 10.4 0.00 0.00 0.00 79 1021.8
20260503173605 60 281 6.1 9.6 0.00 0.00 0.00 68 1021.6
20260503172746 61 277 5.2 9.6 0.00 0.00 0.00 61 1021.4
20260503171804 62 289 3.5 7.0 0.00 0.00 0.00 59 1021.2
20260503170904 63 291 2.6 5.2 0.00 0.00 0.00 57 1021.2
20260503150904 63 356 2.6 10.4 0.00 0.00 0.00 52 1021.9
20260503130904 63 273 6.1 14.8 0.00 0.00 0.00 57 1023.0
20260503080924 59 345 2.6 7.8 0.00 0.00 0.00 54 1023.7
20260503072703 58 332 2.6 5.2 0.00 0.00 0.00 58 1023.9
20260503071804 58 5 1.7 7.0 0.00 0.00 0.00 58 1023.8
20260503070905 58 9 2.6 8.7 0.00 0.00 0.00 59 1023.8